Lapse_Rate
-2.4 -0.7 -0.4 -1.0 -0.3 -0.1 0.1 -0.2 -1.7 -2.0 -1.5 -1.0 -0.3 0.5 0.7 2.2 2.4 2.5 3.1 2.8 3.3 4.4
-2.4 -2.1 -1.3 -2.3 -2.9 -1.6 -2.5 -1.2 -1.6 -1.6 -0.9 -0.5 0.2 0.9 1.2 2.4 2.6 2.4 3.2 3.7 4.0 4.3
-0.1 -0.9 -1.2 -1.4 -0.9 -1.4 -1.4 -1.5 -1.2 -0.8 -0.3 0.0 0.0 0.8 1.4 2.7 3.1 2.9 3.8 4.0 4.1 4.3
1.0 0.4 0.0 0.2 0.2 -0.8 -1.0 -0.6 -0.6 -0.8 -0.7 0.0 0.5 0.8 1.4 2.5 3.2 3.6 3.8 4.1 4.1 4.3
0.5 0.3 0.2 0.5 0.1 -0.2 -0.1 -0.6 -0.5 -0.7 -0.5 0.4 0.5 0.8 1.2 2.1 2.9 3.4 3.6 4.0 4.0 3.9
0.9 0.8 1.0 0.4 -0.3 -0.3 -0.3 -0.1 -0.4 -0.1 -0.2 0.4 0.5 0.7 1.4 2.0 3.0 3.6 3.9 4.0 3.8 3.9
1.1 1.0 0.4 0.0 -0.8 -1.3 -1.3 -0.6 0.2 0.3 0.1 0.1 0.2 0.9 1.5 2.5 3.3 3.8 4.3 4.6 4.9 5.2
0.6 -0.3 -0.8 -0.7 -1.0 -1.0 -0.9 -0.3 -0.4 -0.2 0.4 0.5 0.7 1.9 3.0 3.7 4.7 5.1 5.6 6.3 6.3 6.4
-0.0 -0.3 -0.3 -0.2 -0.6 -0.2 0.1 0.2 0.5 0.3 0.5 0.3 1.2 2.5 3.8 5.1 5.9 7.0 8.6 8.9 8.8 8.5
0.3 0.8 1.0 0.6 0.6 1.1 1.6 1.9 1.4 1.5 1.6 1.3 1.5 2.7 4.4 5.7 7.2 8.7 8.6 9.0 9.2 8.9
0.8 1.3 1.6 1.4 1.7 2.1 2.4 2.4 2.4 2.3 2.1 2.1 2.1 3.9 5.1 6.0 7.2 7.9 8.1 8.0 7.6 8.0
1.8 1.8 2.0 2.0 2.3 2.5 2.5 2.9 3.1 3.3 2.8 2.6 2.7 4.1 5.8 7.1 6.8 7.1 7.1 7.6 8.2 9.3
2.8 2.2 2.0 2.6 2.5 3.0 3.1 3.3 4.2 4.2 4.2 3.9 4.6 4.8 6.6 7.6 8.9 8.9 9.1 9.3 9.6 9.5
3.5 3.0 2.9 3.0 3.4 3.3 3.6 4.3 4.2 4.4 4.6 4.4 4.0 3.7 6.6 9.2 9.6 9.3 9.0 9.0 9.2 9.6
Wind_Speed
5 3 3 2 1 0 2 3 4 4 5 6 5 5 5 4 5 5 4 4 3 4
7 6 4 4 3 2 2 4 5 5 5 4 5 5 6 4 5 5 5 4 4 4
7 7 6 5 5 3 2 4 6 6 7 6 5 6 7 6 6 6 6 6 6 6
6 7 7 6 5 3 3 4 6 6 7 8 7 7 7 8 8 7 7 8 7 9
7 7 6 6 5 3 5 4 6 6 7 8 8 8 8 8 9 9 9 9 10 10
6 5 6 5 5 4 4 5 6 7 7 8 9 9 10 10 10 10 10 11 11 12
6 6 5 4 3 3 4 6 7 7 9 9 10 11 12 12 10 11 12 14 14 13
4 4 3 3 3 4 5 6 7 8 9 9 10 11 11 13 11 13 14 14 17 19
2 2 3 3 3 4 5 6 7 7 8 8 10 15 19 19 13 15 15 15 16 20
2 2 2 2 3 4 5 6 7 8 8 9 12 17 20 22 17 14 15 16 16 16
3 3 3 4 5 6 6 7 7 8 8 9 12 18 20 22 19 13 15 16 16 18
3 4 5 6 7 6 7 7 7 8 9 9 10 18 20 20 13 13 15 15 20 18
5 5 7 8 7 7 6 8 7 9 10 14 12 20 22 19 9 12 11 13 16 25
7 7 8 8 7 7 7 8 8 10 10 11 15 16 21 22 12 10 11 11 12 12
Wind_Direction
170 178 186 199 210 296 324 338 350 5 357 6 6 1 359 352 353 354 357 351 346 328
191 192 196 197 223 231 278 318 330 333 329 336 342 343 340 342 335 334 329 327 325 318
203 204 202 205 218 224 292 296 305 314 316 321 335 335 333 328 327 319 317 312 317 309
202 204 206 226 224 218 251 272 285 301 312 316 322 323 318 312 308 311 307 305 304 304
205 204 217 224 229 230 246 260 281 296 298 296 303 307 307 307 305 302 300 301 301 300
218 222 236 233 234 249 273 284 285 285 282 287 291 293 291 290 291 291 290 293 292 291
226 230 233 242 250 272 289 285 285 279 278 280 285 287 288 288 289 289 286 287 285 284
219 219 233 248 261 277 277 281 280 281 282 283 282 279 286 287 287 286 286 284 283 281
268 248 230 237 260 271 271 268 268 269 276 282 283 285 292 291 288 286 285 285 284 284
344 307 304 307 295 284 279 279 275 276 278 281 284 288 292 292 290 289 286 284 283 282
356 327 317 301 288 288 284 281 283 283 282 282 285 291 297 296 293 290 287 284 283 282
313 302 302 293 290 288 280 279 279 279 282 281 286 295 298 303 297 287 285 283 280 278
296 291 291 286 286 286 275 281 284 285 283 281 284 288 292 295 283 283 284 281 279 278
297 292 282 281 280 277 278 278 277 278 279 274 271 274 283 290 287 284 280 277 277 279